Flag for USA

Past Weather in Bend, Oregon, USA — Yesterday and Last 2 Weeks

Now
75 °F

Sunny.


Feels Like: 77 °F
Forecast: 89 / 57 °F
Wind: 6 mph from West

Location: Roberts Field Airport

Current Time: Jul 16, 2020 at 9:59:36 am

Latest Report: Jul 16, 2020 at 8:56 am


Visibility: 10 mi

Pressure: 29.98 "Hg (26.41 "Hg at 1103m altitude)

Humidity: 34%

Dew Point: 45 °F

Location of BendLocation

Past Weather in Bend — Graph

°F

Bend Temperature Yesterday

Maximum temperature yesterday: 92 °F (at 3:56 pm)
Minimum temperature yesterday: 49 °F (at 2:56 am)
Average temperature yesterday: 73 °F

High & Low Weather Summary for the Past Weeks

 TemperatureHumidityPressure
High92 °F (Jul 15, 3:56 pm)82% (Jul 8, 5:56 am)30.14 "Hg (Jul 8, 5:56 am)
Low39 °F (Jul 2, 4:56 am)10% (Jul 15, 3:56 pm)29.84 "Hg (Jul 6, 4:56 pm)
Average65 °F41%30.01 "Hg
* Reported Jul 1 8:56 am — Jul 16 8:56 am, Bend. Weather by CustomWeather, © 2020

Note: Actual official high and low records may vary slightly from our data, if they occured in-between our weather recording intervals... More about our weather records

Bend Weather History for the Previous 24 Hours

Scroll right to see more
 ConditionsComfort  
Time TempWeatherWind HumidityBarometerVisibility
8:56 am
Thu, Jul 16
75 °FSunny.6 mph34%29.98 "Hg10 mi
7:56 am68 °FSunny.No wind42%29.99 "Hg10 mi
6:56 am62 °FSunny.No wind48%29.98 "Hg10 mi
5:56 am57 °FSunny.8 mph51%29.98 "Hg10 mi
4:56 am56 °FClear.6 mph53%29.97 "Hg10 mi
3:56 am55 °FClear.5 mph53%29.96 "Hg10 mi
2:56 am59 °FClear.No wind51%29.96 "Hg10 mi
1:56 am59 °FClear.6 mph46%29.97 "Hg10 mi
12:56 am61 °FClear.3 mph44%29.98 "Hg10 mi
11:56 pm
Wed, Jul 15
67 °FClear.No wind39%29.97 "Hg10 mi
10:56 pm74 °FClear.7 mph32%29.97 "Hg10 mi
9:56 pm77 °FClear.9 mph26%29.97 "Hg10 mi
8:56 pm80 °FClear.9 mph19%29.96 "Hg10 mi
7:56 pm85 °FSunny.15 mph17%29.95 "Hg10 mi
6:56 pm90 °FSunny.12 mph15%29.95 "Hg10 mi
5:56 pm90 °FSunny.12 mph14%29.96 "Hg10 mi
4:56 pm91 °FSunny.12 mph13%29.98 "Hg10 mi
3:56 pm92 °FSunny.3 mph10%29.99 "Hg10 mi
2:56 pm90 °FSunny.7 mph11%30.01 "Hg10 mi
1:56 pm89 °FSunny.10 mph13%30.02 "Hg10 mi
12:56 pm87 °FSunny.10 mph12%30.03 "Hg10 mi
11:56 am84 °FSunny.8 mph12%30.04 "Hg10 mi
10:56 am82 °FSunny.5 mph16%30.06 "Hg10 mi
9:56 am77 °FSunny.5 mph22%30.07 "Hg10 mi
Weather by CustomWeather, © 2020

See weather overview